Temperature
17 16 16 16 16 16 16 16 16 16 15 15 15 15 15 15 14 14 14 14 14 14 14 14 14 14 13 13 13 13 13 13 13 12 12 12 12 12 12 11 11 11 11
17 16 16 16 16 16 16 16 16 16 15 15 15 15 15 15 14 14 14 14 14 14 14 14 13 13 13 13 13 13 13 13 13 12 12 12 12 11 11 11 11 11 11
17 16 16 16 16 16 16 16 15 15 15 15 15 15 15 15 14 14 14 14 14 14 14 14 13 13 13 13 13 13 13 13 12 12 12 12 11 11 11 11 11 11 11
16 16 16 16 16 16 15 15 15 15 15 15 15 15 15 14 14 14 14 14 14 14 13 13 13 13 13 13 13 13 13 12 12 12 12 11 11 11 11 11 11 11 10
16 16 16 16 16 15 15 15 15 15 15 15 15 15 14 14 14 14 14 14 14 13 13 13 13 13 13 13 13 13 12 12 12 12 12 11 11 11 11 11 10 10 10
16 16 16 16 15 15 15 15 15 15 15 15 14 14 14 14 14 14 14 14 13 13 13 13 13 13 13 13 13 12 12 12 12 12 11 11 11 11 11 10 10 10 10
16 16 16 16 15 15 15 15 15 15 14 14 14 14 14 14 14 14 14 13 13 13 13 13 13 13 13 13 12 12 12 12 12 12 11 11 11 11 10 10 10 10 10
16 16 16 15 15 15 14 14 14 14 14 14 14 14 14 14 14 14 14 13 13 13 13 13 13 13 13 12 12 12 12 12 12 11 11 11 11 11 10 10 10 10 10
16 16 16 15 15 14 14 14 14 14 14 14 14 14 14 14 14 14 14 13 13 13 13 13 13 13 13 12 12 12 12 12 11 11 11 11 10 10 10 10 10 10 9
16 16 15 15 15 14 14 14 14 13 13 13 13 13 13 14 14 14 13 13 13 13 13 13 12 12 12 12 12 12 12 11 11 11 11 11 10 10 10 10 10 9 9
16 15 15 15 15 14 14 14 13 13 13 13 13 13 13 13 13 13 13 13 13 13 13 12 12 12 12 12 11 11 11 11 11 11 10 10 10 10 10 10 9 9 9
15 15 15 15 14 14 14 13 13 13 13 13 13 13 13 13 13 13 13 13 13 12 12 12 12 12 12 11 11 11 11 11 10 10 10 10 10 10 10 9 9 9 9
15 15 14 14 14 14 13 13 13 13 13 12 12 12 13 13 13 13 13 13 12 12 12 12 11 11 11 11 11 11 10 10 10 10 10 10 10 9 9 9 9 9 9
14 14 14 14 14 13 13 13 13 13 13 12 12 12 12 13 13 12 12 12 12 12 12 11 11 11 11 10 10 10 10 10 10 10 10 9 9 9 9 9 9 8 8
14 14 14 13 13 13 13 13 13 13 13 12 12 12 12 12 12 12 12 12 12 12 11 11 11 10 10 10 10 10 10 10 9 9 9 9 9 9 8 8 8 8 8
13 13 13 13 13 13 12 12 12 12 12 12 12 12 12 12 12 12 12 11 11 11 11 10 10 10 10 10 10 10 9 9 9 9 9 9 8 8 8 8 8 7 7
13 13 13 13 12 12 12 12 12 12 12 12 12 12 12 11 11 11 11 11 11 10 10 10 10 10 10 10 10 9 9 9 9 9 8 8 8 8 8 7 7 7 7
13 13 12 12 12 12 12 12 12 12 12 12 12 11 11 11 11 11 11 10 10 10 10 10 10 10 9 9 9 9 9 9 8 8 8 8 8 7 7 7 7 7 6
12 12 12 12 12 12 12 11 11 11 11 11 11 11 11 11 10 10 10 10 10 10 10 10 10 9 9 9 9 9 8 8 8 8 8 7 7 7 7 7 6 6 6
12 12 12 11 11 11 11 11 11 11 11 11 11 11 11 10 10 10 10 10 10 10 9 9 9 9 9 9 9 8 8 8 8 8 7 7 7 7 6 6 6 6 6
11 11 11 11 11 10 10 10 10 10 10 10 11 11 10 10 10 10 10 9 9 9 9 9 9 9 9 8 8 8 8 8 8 7 7 7 7 6 6 6 6 6 5
10 10 10 10 10 10 10 10 10 10 10 10 10 10 10 10 9 9 9 9 9 9 9 9 8 8 8 8 8 8 8 8 7 7 7 7 6 6 6 6 5 5 5
10 9 9 9 9 9 9 9 9 10 10 10 10 9 9 9 9 9 9 8 8 8 8 8 8 8 8 8 8 8 8 7 7 7 7 6 6 6 5 5 5 5 5
9 9 9 9 9 9 9 9 9 9 9 9 9 9 9 8 8 8 8 8 8 8 8 7 7 7 7 7 7 7 7 7 6 6 6 6 5 5 5 5 5 4 4
8 8 8 8 8 8 8 8 8 8 8 8 8 8 8 8 8 8 7 7 7 7 7 7 7 7 7 7 7 6 6 6 6 6 6 5 5 5 4 4 4 4 4
8 7 7 8 7 7 7 7 7 7 7 7 7 7 7 7 7 7 7 7 7 7 6 6 6 6 6 6 6 6 6 5 5 5 5 5 4 4 4 4 4 3 3
Wind_Speed
5 5 4 4 4 3 2 2 3 3 4 5 4 4 4 3 3 3 3 2 2 2 1 2 1 1 1 1 1 1 2 2 2 0 1 2 2 3 4 3 3 4 3
5 5 4 4 4 4 3 3 3 3 4 3 3 4 4 4 4 3 3 2 2 2 2 2 1 1 1 1 1 1 1 1 3 1 0 1 2 2 2 2 2 3 3
5 5 5 4 5 4 3 3 3 3 3 3 3 3 3 4 4 3 3 3 3 3 2 2 2 2 1 1 1 1 0 1 2 2 1 0 1 1 1 1 1 2 1
5 5 5 4 5 5 4 4 4 3 3 3 3 4 3 4 4 3 3 3 2 2 2 3 3 3 2 1 1 1 1 1 1 1 1 1 1 1 1 0 1 1 1
5 5 5 4 4 5 4 3 3 3 3 3 3 3 3 3 3 3 3 3 3 2 2 3 3 4 3 2 1 1 1 1 1 1 1 0 0 0 0 1 1 1 1
5 5 5 5 4 4 4 3 3 2 2 2 3 3 3 2 3 4 2 2 3 3 3 3 3 4 4 3 3 2 3 2 2 1 1 2 2 2 2 1 1 1 2
5 5 5 5 5 5 4 3 3 3 3 3 3 4 3 4 5 4 3 2 2 2 3 2 2 3 4 3 2 2 1 2 2 2 2 2 2 2 2 2 2 1 2
5 5 6 6 5 5 5 4 4 3 3 3 3 4 4 5 6 6 6 4 3 3 3 3 3 3 3 3 3 3 3 2 2 2 3 2 1 1 2 2 2 1 2
5 5 6 6 6 5 5 5 5 4 4 4 4 5 5 5 7 7 6 3 3 4 3 3 3 4 5 4 3 3 3 2 2 3 3 3 2 2 1 1 0 0 2
5 5 5 6 6 6 6 5 4 4 4 4 4 5 5 5 7 8 8 4 4 3 3 3 4 4 5 6 4 3 3 3 2 2 1 2 2 3 2 3 3 2 2
4 4 5 6 7 6 6 5 4 4 4 5 5 5 5 6 8 9 9 5 4 4 3 3 3 5 6 7 5 3 4 3 2 3 2 2 2 2 2 2 3 3 3
4 5 5 6 6 6 6 5 5 5 5 5 4 5 4 5 6 8 10 9 5 4 4 3 3 6 7 7 6 4 4 2 2 2 2 2 2 2 2 2 2 2 3
4 5 5 6 6 5 6 6 5 5 5 5 4 4 4 3 5 8 10 10 8 4 3 4 5 6 6 6 7 7 5 3 3 3 3 3 3 2 2 1 1 2 2
5 5 5 5 6 5 5 5 5 6 6 6 5 5 5 4 4 5 5 5 6 5 4 4 5 6 6 6 6 6 5 4 4 4 3 2 1 1 1 1 1 1 1
5 5 5 5 5 5 5 5 7 7 7 7 6 6 6 6 6 8 6 5 5 6 4 2 3 3 4 4 4 4 4 4 4 3 3 3 2 2 2 2 2 1 2
5 5 4 4 4 4 4 3 4 5 8 9 9 7 6 8 8 9 9 9 9 9 5 4 5 6 6 6 6 5 5 5 5 5 4 4 4 4 3 2 2 2 3
5 5 4 4 4 5 5 5 4 3 4 6 8 8 8 8 9 9 8 8 9 9 6 6 6 6 6 6 5 5 5 5 5 4 5 4 4 4 3 3 3 3 4
5 5 5 4 5 5 5 5 5 5 4 3 4 7 9 9 9 9 9 6 4 6 6 6 6 6 6 5 5 5 5 4 4 4 4 4 4 4 4 4 4 4 4
4 3 4 3 4 4 5 4 5 5 5 4 3 3 6 7 7 8 8 5 6 7 7 6 6 6 6 6 5 5 5 5 4 4 5 5 5 4 4 4 4 6 5
3 5 4 3 4 4 4 4 5 5 5 5 5 5 5 4 4 5 5 5 6 6 6 6 6 5 5 5 5 4 4 4 5 5 5 5 5 5 5 5 5 4 4
2 4 5 4 4 4 4 4 5 5 5 5 5 6 8 6 6 7 6 6 6 6 6 5 5 4 4 4 4 5 6 5 5 5 5 5 5 5 5 5 5 4 4
2 3 3 3 4 4 4 4 4 4 5 5 3 5 8 6 5 5 5 5 5 5 5 5 4 4 4 5 5 5 5 5 5 5 5 4 4 4 4 4 4 3 3
2 2 2 2 3 4 4 3 3 3 3 3 3 3 4 4 4 4 4 4 3 3 3 4 4 4 4 4 4 5 5 5 5 4 4 4 4 4 4 4 5 4 4
2 2 2 2 2 2 2 2 2 2 2 2 2 3 3 3 3 3 3 2 2 2 2 2 3 4 5 4 4 4 4 4 5 4 5 5 5 4 3 3 3 4 4
2 2 2 1 1 1 1 1 1 1 1 1 2 2 3 3 2 2 2 1 2 3 3 3 2 3 4 4 4 4 4 4 4 3 3 4 4 4 3 3 3 2 3
1 0 1 1 1 0 0 1 1 1 1 1 1 1 2 2 2 2 2 1 2 2 2 3 3 4 4 4 5 5 5 5 5 4 4 3 3 3 3 3 3 3 3
Wind_Direction
183 172 162 163 157 158 157 155 154 157 159 161 166 164 158 163 159 145 150 162 140 137 129 118 113 93 86 63 49 44 46 98 118 3 111 123 111 98 104 107 116 125 119
178 166 166 166 155 160 168 168 161 167 170 166 164 160 164 162 157 159 164 172 162 159 160 150 147 122 119 96 86 101 116 126 130 143 118 111 123 134 136 141 108 112 136
174 170 172 175 171 174 182 175 172 175 177 170 165 169 167 161 163 170 169 174 170 174 170 163 154 132 154 169 148 130 145 120 126 142 180 159 121 121 96 80 103 120 138
178 175 177 179 173 172 182 184 181 174 172 181 180 181 179 169 165 172 164 167 169 169 164 159 158 163 178 191 170 183 161 128 126 134 163 191 155 163 106 95 314 298 295
179 176 176 170 170 168 175 179 173 173 179 179 176 174 175 167 166 165 175 176 173 168 167 168 152 142 132 135 144 140 115 133 153 157 183 182 202 128 211 237 225 276 293
185 182 172 170 169 167 172 170 160 174 181 175 183 177 177 183 163 162 173 187 178 178 186 172 159 143 140 130 110 134 151 155 168 169 202 198 223 206 204 212 198 285 287
190 173 165 166 168 175 177 166 174 187 191 195 195 176 178 184 178 176 193 199 202 188 187 179 175 158 160 163 175 168 173 190 189 180 196 219 214 205 193 227 245 240 246
194 175 166 170 173 179 179 182 194 198 194 204 210 194 187 192 192 195 203 214 220 209 195 183 178 172 173 171 179 185 187 203 220 197 195 215 209 196 188 206 227 247 269
199 189 177 171 172 181 192 196 197 198 200 205 207 202 196 194 200 200 191 207 218 215 200 190 189 180 185 177 181 192 184 209 210 188 191 204 214 229 177 108 64 309 286
204 201 185 178 181 189 198 202 202 201 204 202 209 206 196 193 198 199 195 202 214 216 208 198 199 202 189 171 184 198 206 219 197 215 231 231 214 218 219 183 190 213 256
201 201 195 185 189 192 196 197 199 203 203 208 214 215 206 197 198 200 198 201 205 211 207 205 201 195 192 191 195 202 215 206 204 205 205 213 212 211 218 218 206 194 215
202 201 201 196 200 198 187 195 200 205 210 217 219 218 209 196 192 199 198 206 211 210 210 201 198 194 200 205 207 218 218 199 199 209 204 207 211 218 215 208 222 220 221
208 205 203 200 203 193 189 194 198 202 207 216 221 221 213 198 190 196 201 206 213 214 214 206 209 206 202 207 213 217 209 194 200 211 218 221 213 205 186 187 249 249 260
216 211 205 205 200 193 195 197 202 207 209 213 222 221 212 202 192 191 197 203 206 214 228 221 214 209 215 219 212 217 210 199 197 210 218 226 212 190 198 199 223 236 272
218 213 211 209 204 202 204 210 212 215 212 212 218 213 205 213 208 193 187 199 202 204 200 213 208 199 211 213 207 206 203 200 209 213 213 221 220 213 221 216 212 224 240
225 222 219 213 206 205 209 230 243 231 221 219 221 222 221 214 200 199 204 203 201 198 192 213 220 212 211 211 211 211 205 202 206 206 209 214 217 217 221 218 213 218 237
226 220 217 217 211 209 210 212 230 262 240 226 222 219 215 206 201 202 205 206 206 196 205 217 220 217 213 211 211 209 212 208 201 204 210 215 219 221 218 221 226 234 242
231 226 220 216 211 211 214 215 214 219 228 240 234 214 207 206 205 203 193 183 208 211 214 219 221 217 213 210 210 210 210 205 202 206 211 215 219 224 228 225 228 234 238
229 228 224 218 214 217 218 218 218 218 221 224 219 213 202 200 201 200 190 206 210 215 217 219 219 216 214 210 207 207 204 203 204 204 208 213 218 221 228 230 229 238 239
228 229 229 223 222 225 221 219 219 219 217 217 216 203 187 179 193 200 210 217 217 217 216 219 218 215 211 206 200 201 206 203 203 208 212 215 218 219 225 229 228 232 233
229 227 227 231 230 229 228 226 226 224 222 221 217 204 197 201 205 206 209 217 220 219 214 212 209 207 207 206 202 204 208 211 208 211 214 216 217 220 223 224 228 230 231
225 221 221 228 234 232 235 231 227 229 227 227 219 205 197 203 208 209 213 219 218 217 207 204 209 209 204 205 206 207 209 212 212 211 215 216 218 221 221 219 221 226 225
230 236 236 242 247 247 247 237 227 226 229 224 209 195 191 201 204 208 213 214 209 210 199 190 196 200 190 189 189 195 207 211 209 203 204 212 224 228 225 223 222 224 223
248 249 251 252 248 239 246 248 239 228 225 219 206 199 194 200 212 215 210 204 193 188 185 184 188 188 187 185 182 182 191 199 193 187 195 211 223 226 220 221 223 224 224
257 252 246 248 253 242 241 261 261 241 231 234 227 210 194 198 214 222 211 203 183 183 181 181 173 172 173 168 165 171 180 182 185 185 191 203 210 213 208 210 216 221 228
281 267 264 260 270 281 261 266 275 277 260 259 263 241 204 199 210 215 211 209 195 185 181 176 181 179 173 172 177 177 178 183 187 189 196 203 206 205 198 205 215 219 223
Height
1532 1534 1535 1536 1537 1538 1540 1541 1542 1542 1543 1544 1544 1545 1545 1546 1546 1547 1548 1549 1549 1550 1550 1551 1551 1551 1552 1552 1552 1553 1553 1553 1553 1553 1553 1553 1553 1552 1551 1550 1550 1549 1548
1530 1531 1533 1534 1535 1536 1538 1539 1540 1541 1541 1542 1543 1543 1544 1545 1545 1546 1547 1547 1548 1548 1549 1549 1550 1550 1550 1551 1551 1551 1552 1552 1552 1552 1552 1552 1552 1551 1551 1550 1549 1548 1547
1528 1529 1530 1531 1533 1534 1535 1537 1538 1539 1540 1540 1541 1542 1543 1543 1544 1545 1545 1546 1547 1547 1547 1548 1548 1549 1549 1549 1550 1550 1550 1550 1551 1551 1551 1551 1551 1550 1550 1549 1548 1548 1547
1525 1526 1528 1529 1530 1531 1533 1534 1535 1536 1537 1538 1539 1540 1541 1541 1542 1543 1543 1544 1545 1545 1546 1546 1547 1547 1547 1548 1548 1548 1549 1549 1549 1549 1549 1549 1549 1549 1548 1547 1546 1546 1545
1523 1524 1525 1526 1527 1529 1530 1532 1533 1534 1535 1535 1536 1537 1538 1539 1540 1541 1541 1542 1543 1543 1544 1544 1545 1545 1545 1546 1546 1546 1547 1547 1547 1547 1547 1547 1547 1546 1546 1545 1545 1544 1544
1520 1521 1522 1523 1524 1526 1527 1529 1530 1531 1532 1533 1534 1535 1535 1536 1537 1538 1539 1540 1540 1541 1542 1542 1543 1543 1543 1544 1544 1544 1545 1545 1545 1545 1545 1545 1544 1544 1544 1544 1543 1542 1541
1517 1518 1519 1520 1521 1522 1524 1525 1526 1527 1529 1530 1531 1531 1532 1533 1535 1536 1537 1537 1538 1539 1539 1540 1540 1540 1540 1541 1541 1542 1542 1542 1543 1543 1542 1542 1542 1542 1542 1541 1541 1540 1539
1514 1514 1515 1516 1518 1519 1520 1521 1523 1524 1525 1526 1527 1528 1529 1530 1531 1532 1533 1534 1535 1536 1536 1537 1537 1537 1537 1538 1538 1539 1539 1539 1540 1540 1540 1540 1540 1540 1540 1539 1539 1538 1538
1510 1510 1511 1512 1513 1515 1516 1517 1519 1520 1521 1522 1523 1525 1526 1527 1528 1529 1530 1531 1531 1532 1533 1533 1534 1534 1534 1535 1535 1535 1536 1536 1537 1537 1538 1538 1537 1537 1537 1536 1536 1535 1534
1505 1507 1508 1509 1510 1511 1512 1513 1515 1516 1517 1519 1520 1521 1522 1523 1524 1525 1526 1527 1527 1528 1529 1530 1530 1530 1531 1531 1532 1532 1532 1533 1533 1534 1534 1534 1534 1534 1534 1533 1533 1532 1531
1502 1502 1504 1505 1506 1507 1508 1510 1511 1512 1513 1514 1515 1516 1518 1519 1520 1521 1522 1522 1523 1524 1524 1525 1526 1526 1527 1527 1528 1528 1528 1529 1530 1530 1530 1531 1531 1531 1530 1530 1530 1529 1529
1498 1498 1499 1501 1502 1503 1504 1505 1507 1508 1509 1510 1511 1512 1513 1514 1515 1516 1517 1518 1519 1520 1520 1521 1521 1522 1522 1523 1524 1524 1525 1526 1526 1526 1527 1527 1527 1527 1527 1527 1527 1526 1526
1494 1494 1495 1496 1498 1499 1500 1501 1502 1503 1504 1505 1506 1507 1508 1509 1510 1511 1512 1513 1514 1515 1515 1516 1517 1518 1518 1518 1519 1520 1521 1521 1522 1522 1522 1523 1523 1523 1523 1523 1523 1522 1522
1489 1490 1491 1492 1493 1494 1495 1496 1497 1498 1499 1500 1500 1501 1502 1504 1505 1506 1507 1508 1509 1510 1511 1511 1512 1513 1513 1514 1515 1515 1516 1517 1517 1518 1518 1519 1519 1519 1519 1519 1518 1518 1517
1484 1485 1486 1487 1488 1489 1490 1490 1491 1492 1493 1494 1495 1496 1497 1497 1499 1500 1501 1502 1503 1505 1506 1506 1507 1507 1508 1509 1510 1510 1511 1512 1513 1513 1514 1514 1515 1515 1515 1514 1514 1513 1512
1479 1480 1481 1482 1483 1483 1484 1485 1486 1487 1488 1489 1490 1491 1491 1493 1494 1495 1496 1497 1498 1500 1500 1500 1501 1502 1502 1503 1504 1505 1506 1506 1507 1508 1508 1509 1510 1510 1510 1510 1509 1509 1508
1473 1474 1475 1476 1477 1478 1478 1479 1479 1481 1482 1483 1484 1485 1486 1487 1488 1489 1491 1492 1493 1494 1494 1494 1495 1496 1497 1498 1499 1499 1500 1501 1502 1502 1503 1504 1504 1504 1505 1504 1504 1504 1503
1468 1469 1469 1470 1471 1472 1472 1473 1474 1474 1475 1476 1478 1479 1480 1481 1482 1483 1485 1486 1486 1487 1487 1488 1489 1490 1491 1492 1493 1494 1495 1496 1496 1497 1498 1498 1498 1499 1499 1499 1499 1499 1498
1463 1463 1464 1464 1465 1466 1467 1468 1469 1469 1470 1470 1471 1472 1474 1475 1476 1477 1478 1479 1479 1480 1481 1482 1483 1484 1485 1486 1487 1488 1489 1489 1490 1491 1491 1492 1492 1493 1493 1493 1494 1494 1494
1457 1458 1458 1459 1460 1461 1462 1462 1463 1464 1464 1464 1465 1466 1467 1468 1469 1470 1471 1472 1473 1474 1475 1476 1477 1478 1479 1480 1481 1482 1483 1483 1484 1484 1485 1485 1486 1486 1487 1488 1488 1488 1488
1452 1452 1453 1454 1455 1455 1456 1457 1458 1458 1458 1458 1459 1460 1461 1462 1463 1463 1464 1466 1467 1468 1469 1470 1470 1471 1472 1473 1474 1475 1476 1476 1477 1478 1478 1479 1479 1480 1481 1481 1482 1482 1482
1447 1448 1448 1449 1449 1450 1451 1451 1452 1452 1453 1453 1453 1454 1455 1456 1457 1458 1458 1459 1460 1462 1463 1463 1464 1465 1466 1467 1467 1468 1468 1469 1470 1471 1471 1472 1473 1474 1474 1475 1475 1476 1476
1442 1443 1443 1444 1444 1445 1445 1446 1446 1446 1447 1447 1447 1448 1449 1450 1451 1451 1452 1453 1454 1455 1456 1457 1458 1458 1459 1460 1461 1461 1462 1462 1463 1464 1465 1466 1466 1467 1468 1468 1469 1470 1470
1438 1438 1439 1439 1439 1439 1439 1440 1440 1441 1441 1442 1442 1442 1443 1444 1444 1445 1446 1447 1448 1449 1450 1451 1452 1452 1453 1453 1454 1455 1455 1456 1457 1458 1458 1459 1460 1461 1462 1463 1463 1464 1465
1434 1434 1434 1434 1434 1434 1435 1435 1435 1435 1436 1436 1436 1437 1437 1438 1439 1440 1440 1441 1442 1443 1443 1444 1445 1446 1446 1447 1448 1448 1449 1450 1450 1451 1453 1453 1454 1455 1456 1457 1458 1458 1459
1430 1430 1430 1430 1430 1430 1430 1431 1431 1431 1431 1431 1431 1431 1432 1432 1433 1434 1434 1435 1435 1436 1437 1438 1439 1439 1440 1441 1441 1442 1443 1444 1445 1446 1446 1447 1448 1449 1450 1451 1451 1452 1453